View from above orbital plane
|
View from above satellite
|
Ground track
|
The orbit data is extracted from the following two-line orbital elements,
1 19039U 88029B 21058.47540894 .00000059 00000-0 27734-4 0 9997
2 19039 74.0499 330.7880 0023667 171.5324 188.6234 14.38502045724864
Epoch (UTC): | 27 February 2021 11:24:35 |
Eccentricity: | 0.0023667 |
inclination: | 74.0499° |
perigee height: | 746 km |
apogee height: | 780 km |
right ascension of ascending node: | 330.7880° |
argument of perigee: | 171.5324° |
revolutions per day: | 14.38502045 |
mean anomaly at epoch: | 188.6234° |
orbit number at epoch: | 72486 |
The dashed part of the orbit path shows where the satellite is in the earth's shadow,
|
|